"startDT [UTC]","vpos","CH4 [ppm]","stdev(CH4) [ppm]","CO2 [ppm]","stdev(CO2) [ppm]","H2O_reported [%]","stdev(H2O_reported)","CavityPressure [torr]","CavityTemp [C]","OutletValve","CH4_dry [ppm]","CO2_dry [ppm]","DasTemp [C]","EtalonTemp [C]","WarmBoxTemp [C]","MPVPosition","T_ECpre [C]","T_EC1 [C]","T_EC2 [C]","p_inlet [hPa]","p_in [hPa]","p_out [hPa]","T_inlet [C]","RH_inlet [%]","dwpt_inlet [C]","T_vent [C]","RH_vent [%]","dwpt_vent [C]","flow_vent [l min-1]","flow_inlet [l min-1]","dwpt_sample [C]","T_room [C]"
2015-07-07 00:00:00,3.0,1.87439,0.00807,396.226,2.782,0.2382,0.3433,139.899,45.000,30937.11752,1.88072,397.399,33.250,45.068,44.999,0.00,0.10,-272.73,-272.79,-1,467,-5,23.7,25.3,2.6,23.4,25.2,2.4,5.73,1.90,0.0,27.7
2015-07-07 00:01:00,3.0,1.87543,0.00048,396.774,0.039,0.0335,0.0022,140.002,45.000,30817.71847,1.87597,396.936,33.246,45.068,45.000,0.00,0.10,-272.73,-272.80,-4,467,-5,23.7,25.3,2.7,23.4,25.9,2.8,5.73,1.89,0.0,27.7
2015-07-07 00:02:00,3.0,1.87559,0.00059,397.024,0.118,0.0305,0.0021,139.999,45.000,30792.01736,1.87617,397.160,33.241,45.068,45.000,0.00,0.10,-272.73,-272.79,-4,467,-5,23.7,25.2,2.6,23.4,26.0,2.8,5.73,1.91,0.0,27.7
2015-07-07 00:03:00,3.0,1.87568,0.00041,397.289,0.065,0.0256,0.0022,140.000,45.000,30773.54258,1.87615,397.408,33.239,45.068,45.000,0.00,0.10,-272.73,-272.79,-5,467,-5,23.7,25.4,2.7,23.4,26.1,2.9,5.73,1.91,0.0,27.7
2015-07-07 00:04:00,3.0,1.87563,0.00038,397.405,0.037,0.0197,0.0020,139.999,45.000,30758.51870,1.87599,397.499,33.241,45.068,45.000,0.00,0.10,-272.74,-272.80,-5,467,-5,23.7,25.5,2.8,23.4,26.2,2.9,5.73,1.92,0.0,27.7
2015-07-07 00:05:00,3.0,1.87587,0.00034,397.439,0.025,0.0154,0.0011,140.001,45.000,30748.75317,1.87612,397.513,33.232,45.068,45.000,0.00,0.10,-272.73,-272.79,-5,467,-5,23.7,25.6,2.9,23.4,26.4,3.0,5.73,1.92,0.0,27.8
2015-07-07 00:06:00,3.0,1.87600,0.00048,397.456,0.037,0.0133,0.0031,140.002,45.000,30736.88792,1.87622,397.519,33.236,45.068,45.000,0.00,0.10,-272.72,-272.79,-6,468,-5,23.7,25.7,2.9,23.4,26.4,3.0,5.73,1.93,0.0,27.7
2015-07-07 00:07:00,3.0,1.87629,0.00048,397.502,0.037,0.0098,0.0021,139.996,45.000,30724.35706,1.87646,397.549,33.237,45.068,45.000,0.00,0.10,-272.73,-272.79,-5,468,-5,23.7,25.7,2.9,23.5,26.5,3.1,5.73,1.93,0.0,27.7
2015-07-07 00:08:00,3.0,1.87621,0.00028,397.539,0.033,0.0086,0.0014,139.998,45.000,30718.42204,1.87641,397.579,33.215,45.068,45.000,0.00,0.10,-272.73,-272.79,-6,468,-5,23.7,25.9,3.0,23.5,26.7,3.2,5.73,1.93,0.0,27.7
2015-07-07 00:09:00,3.0,1.87657,0.00039,397.521,0.018,0.0069,0.0016,139.995,45.000,30711.51743,1.87667,397.555,33.209,45.068,45.000,0.00,0.10,-272.72,-272.79,-6,468,-5,23.7,25.7,2.9,23.5,26.5,3.1,5.73,1.92,0.0,27.7
2015-07-07 00:10:00,3.0,1.87652,0.00035,397.540,0.024,0.0072,0.0016,140.005,45.000,30710.43713,1.87665,397.574,33.197,45.068,45.000,0.00,0.10,-272.73,-272.79,-6,469,-5,23.7,25.6,2.9,23.4,26.4,3.1,5.73,1.94,0.0,27.8
2015-07-07 00:11:00,3.0,1.87651,0.00042,397.527,0.017,0.0059,0.0020,140.004,45.000,30708.66839,1.87661,397.555,33.217,45.068,45.000,0.00,0.10,-272.73,-272.80,-6,469,-5,23.8,25.6,2.9,23.5,26.4,3.1,5.73,1.93,0.0,27.8
2015-07-07 00:12:00,3.0,1.87643,0.00035,397.531,0.022,0.0054,0.0022,140.001,45.000,30707.59280,1.87657,397.556,33.219,45.068,45.000,0.00,0.10,-272.73,-272.79,-6,469,-5,23.7,25.4,2.7,23.4,26.2,2.9,5.73,1.93,0.1,27.8
2015-07-07 00:13:00,3.0,1.87616,0.00052,397.556,0.032,0.0040,0.0018,139.998,45.000,30705.30552,1.87626,397.575,33.214,45.068,45.000,0.00,0.10,-272.73,-272.79,-6,470,-5,23.8,25.4,2.8,23.5,26.1,2.9,5.73,1.93,0.0,27.7
2015-07-07 00:14:00,3.0,1.87631,0.00034,397.543,0.025,0.0031,0.0019,139.999,45.000,30703.78021,1.87632,397.558,33.241,45.068,45.000,0.00,0.10,-272.73,-272.80,-6,470,-5,23.7,25.3,2.7,23.4,26.2,2.9,5.73,1.92,0.0,27.8
2015-07-07 00:15:00,3.0,1.87669,0.00030,397.574,0.030,0.0039,0.0025,139.999,45.000,30701.43987,1.87673,397.593,33.250,45.068,45.000,0.00,0.10,-272.73,-272.79,-6,470,-5,23.7,25.3,2.7,23.5,26.1,2.9,5.73,1.92,0.1,27.8
2015-07-07 00:16:00,3.0,1.87637,0.00049,397.586,0.032,0.0032,0.0015,140.001,45.000,30702.91654,1.87644,397.601,33.250,45.068,45.000,0.00,0.10,-272.73,-272.79,-6,471,-5,23.8,25.2,2.7,23.4,26.0,2.8,5.73,1.92,0.1,27.7
2015-07-07 00:17:00,3.0,1.87646,0.00035,397.540,0.039,0.0033,0.0020,140.003,45.000,30705.10153,1.87652,397.556,33.254,45.068,45.000,0.00,0.10,-272.73,-272.79,-7,471,-5,23.8,25.2,2.7,23.5,25.9,2.9,5.73,1.91,0.1,27.7
2015-07-07 00:18:00,3.0,1.87636,0.00046,397.557,0.035,0.0033,0.0021,140.007,45.000,30704.29454,1.87646,397.572,33.250,45.068,45.000,0.00,0.10,-272.73,-272.79,-6,471,-5,23.8,25.2,2.7,23.5,26.0,2.9,5.73,1.91,0.1,27.8
2015-07-07 00:19:00,3.0,1.87650,0.00045,397.554,0.041,0.0023,0.0024,139.997,45.000,30703.07609,1.87653,397.567,33.250,45.068,45.000,0.00,0.10,-272.73,-272.79,-6,472,-5,23.7,25.2,2.7,23.5,26.0,2.9,5.73,1.91,0.1,27.7
2015-07-07 00:20:00,0.0,1.89723,0.00527,392.257,2.044,0.8096,0.2789,140.072,45.000,33634.21626,1.91100,396.168,33.250,45.068,45.000,0.00,0.10,-272.73,-272.79,-6,975,-5,23.8,25.2,2.7,23.5,26.1,2.9,5.73,1.92,0.1,27.8
2015-07-07 00:21:00,0.0,1.89716,0.00045,391.243,0.082,0.9432,0.0017,140.003,45.000,33882.83040,1.91535,395.819,33.250,45.068,45.000,0.00,0.10,-272.73,-272.79,-7,977,-5,23.8,25.3,2.7,23.6,26.1,3.0,5.73,1.95,0.1,27.7
2015-07-07 00:22:00,0.0,1.89638,0.00062,391.156,0.185,0.9472,0.0028,140.006,45.000,33948.50322,1.91454,395.739,33.246,45.068,45.000,0.00,0.10,-272.73,-272.79,-6,977,-5,23.8,25.2,2.7,23.5,26.1,2.9,5.73,1.94,0.1,27.7
2015-07-07 00:23:00,0.0,1.89711,0.00075,391.259,0.166,0.9472,0.0018,139.998,45.000,33994.96114,1.91540,395.862,33.205,45.068,45.000,0.00,0.10,-272.72,-272.79,-6,978,-5,23.8,25.2,2.7,23.6,26.0,2.9,5.73,1.95,0.1,27.7
2015-07-07 00:24:00,0.0,1.89708,0.00068,391.309,0.066,0.9482,0.0017,140.000,45.000,34037.41754,1.91526,395.903,33.191,45.068,45.000,0.00,0.10,-272.73,-272.79,-7,978,-5,23.8,25.2,2.7,23.5,26.0,2.9,5.73,1.95,0.1,27.8
2015-07-07 00:25:00,0.0,1.89714,0.00053,391.334,0.035,0.9487,0.0022,140.005,45.000,34072.43677,1.91542,395.938,33.189,45.068,45.000,0.00,0.10,-272.73,-272.79,-6,978,-5,23.8,25.1,2.6,23.5,26.0,2.9,5.73,1.94,0.1,27.8
2015-07-07 00:26:00,0.0,1.89716,0.00040,391.325,0.039,0.9489,0.0017,140.002,45.000,34100.70435,1.91545,395.930,33.185,45.068,45.000,0.00,0.10,-272.72,-272.79,-6,979,-5,23.8,25.1,2.6,23.6,25.9,2.9,5.73,1.95,0.1,27.7
2015-07-07 00:27:00,0.0,1.89673,0.00065,391.185,0.088,0.9488,0.0022,140.002,45.000,34124.60522,1.91497,395.788,33.189,45.068,45.000,0.00,0.10,-272.73,-272.79,-7,979,-5,23.8,25.1,2.6,23.6,25.9,2.9,5.73,1.94,0.1,27.7
2015-07-07 00:28:00,0.0,1.89602,0.00073,391.069,0.121,0.9512,0.0022,140.004,45.000,34141.51418,1.91439,395.689,33.195,45.068,45.000,0.00,0.10,-272.73,-272.80,-6,979,-5,23.8,25.2,2.7,23.6,26.0,2.9,5.73,1.94,0.1,27.7
2015-07-07 00:29:00,0.0,1.89654,0.00061,391.081,0.121,0.9557,0.0025,140.002,45.000,34158.38246,1.91479,395.707,33.206,45.068,45.000,0.00,0.10,-272.72,-272.79,-6,979,-5,23.8,25.3,2.7,23.6,26.0,3.0,5.73,1.94,0.1,27.8
2015-07-07 00:30:00,0.0,1.89767,0.00041,391.243,0.046,0.9547,0.0030,140.000,45.000,34169.90033,1.91607,395.875,33.233,45.068,45.000,0.00,0.10,-272.73,-272.79,-7,980,-5,23.8,25.2,2.7,23.6,26.1,3.0,5.73,1.95,0.1,27.8
2015-07-07 00:31:00,0.0,1.89583,0.00086,390.938,0.179,0.9513,0.0024,140.000,45.000,34182.48206,1.91424,395.554,33.244,45.068,45.000,0.00,0.10,-272.73,-272.79,-7,979,-5,23.8,25.1,2.7,23.6,25.9,2.9,5.73,1.94,0.1,27.7
2015-07-07 00:32:00,0.0,1.89506,0.00051,390.939,0.218,0.9523,0.0023,139.997,45.000,34190.46874,1.91336,395.549,33.251,45.068,45.000,0.00,0.10,-272.73,-272.79,-7,979,-5,23.7,25.1,2.6,23.5,25.9,2.9,5.73,1.94,0.1,27.8
2015-07-07 00:33:00,0.0,1.89584,0.00063,391.379,0.133,0.9494,0.0019,140.002,45.000,34201.61461,1.91407,395.982,33.260,45.068,45.000,0.00,0.10,-272.73,-272.78,-7,980,-5,23.8,25.1,2.6,23.6,25.9,2.9,5.73,1.95,0.1,27.8
2015-07-07 00:34:00,0.0,1.89666,0.00061,391.740,0.065,0.9438,0.0033,139.996,45.000,34207.16706,1.91483,396.319,33.257,45.068,45.000,0.00,0.10,-272.74,-272.79,-7,980,-5,23.8,24.9,2.5,23.6,25.7,2.8,5.73,1.94,0.1,27.7
2015-07-07 00:35:00,0.0,1.89714,0.00058,391.783,0.106,0.9380,0.0015,140.000,45.000,34216.33882,1.91517,396.340,33.258,45.068,45.000,0.00,0.10,-272.73,-272.80,-7,980,-5,23.8,24.8,2.4,23.6,25.5,2.7,5.73,1.94,0.1,27.9
2015-07-07 00:36:00,0.0,1.89578,0.00050,391.457,0.149,0.9406,0.0025,140.003,45.000,34222.05383,1.91386,396.021,33.257,45.068,45.000,0.00,0.10,-272.72,-272.79,-7,980,-5,23.8,24.8,2.5,23.6,25.5,2.7,5.73,1.94,0.1,27.8
2015-07-07 00:37:00,0.0,1.89646,0.00077,391.512,0.219,0.9446,0.0021,140.004,45.000,34228.27094,1.91457,396.086,33.285,45.068,45.000,0.00,0.10,-272.72,-272.79,-7,980,-5,23.8,24.9,2.5,23.6,25.6,2.8,5.73,1.94,0.1,27.8
2015-07-07 00:38:00,0.0,1.89686,0.00062,391.801,0.081,0.9434,0.0019,139.998,45.000,34233.60570,1.91505,396.387,33.289,45.068,45.000,0.00,0.10,-272.73,-272.80,-7,980,-5,23.8,24.8,2.5,23.6,25.7,2.8,5.73,1.94,0.1,27.8
2015-07-07 00:39:00,0.0,1.89613,0.00052,391.538,0.114,0.9424,0.0025,140.002,45.000,34238.50966,1.91430,396.115,33.293,45.068,45.000,0.00,0.10,-272.73,-272.79,-7,980,-5,23.8,24.9,2.5,23.6,25.6,2.7,5.73,1.94,0.1,27.8
2015-07-07 00:40:00,0.0,1.89625,0.00043,391.448,0.088,0.9484,0.0025,140.001,45.000,34243.75141,1.91449,396.055,33.296,45.068,45.000,0.00,0.10,-272.72,-272.79,-7,981,-5,23.8,25.0,2.6,23.6,25.7,2.8,5.73,1.94,0.1,27.7
2015-07-07 00:41:00,0.0,1.89586,0.00044,391.143,0.121,0.9511,0.0025,140.000,45.000,34244.18721,1.91415,395.761,33.307,45.068,45.000,0.00,0.10,-272.74,-272.80,-7,981,-5,23.8,25.1,2.6,23.6,25.8,2.9,5.73,1.95,0.1,27.8
2015-07-07 00:42:00,0.0,1.89588,0.00066,391.221,0.130,0.9573,0.0020,139.997,45.000,34248.82530,1.91427,395.861,33.310,45.068,45.000,0.00,0.10,-272.73,-272.79,-7,980,-5,23.8,25.2,2.7,23.6,25.9,2.9,5.73,1.94,0.1,27.8
2015-07-07 00:43:00,0.0,1.89558,0.00047,391.190,0.086,0.9577,0.0027,140.004,45.000,34251.58140,1.91405,395.838,33.313,45.068,45.000,0.00,0.10,-272.73,-272.79,-7,981,-5,23.8,25.2,2.7,23.6,26.0,3.0,5.73,1.94,0.1,27.8
2015-07-07 00:44:00,0.0,1.89624,0.00060,391.359,0.052,0.9571,0.0022,140.005,45.000,34255.74001,1.91465,396.003,33.316,45.068,45.000,0.00,0.10,-272.73,-272.79,-7,981,-5,23.8,25.2,2.7,23.6,26.0,3.0,5.73,1.94,0.1,27.7
2015-07-07 00:45:00,0.0,1.89581,0.00056,391.161,0.142,0.9539,0.0025,140.001,45.000,34255.43229,1.91413,395.790,33.313,45.068,45.000,0.00,0.10,-272.73,-272.79,-7,981,-5,23.8,25.1,2.7,23.6,25.9,2.9,5.73,1.93,0.1,27.7
2015-07-07 00:46:00,0.0,1.89614,0.00051,391.433,0.109,0.9599,0.0046,139.995,45.000,34254.75666,1.91461,396.087,33.296,45.068,45.000,0.00,0.10,-272.73,-272.78,-7,981,-5,23.8,25.3,2.8,23.6,26.0,3.0,5.73,1.94,0.1,27.8
2015-07-07 00:47:00,0.0,1.89618,0.00039,391.307,0.176,0.9617,0.0020,140.002,45.000,34257.23488,1.91470,395.987,33.257,45.068,45.000,0.00,0.10,-272.72,-272.79,-7,981,-5,23.8,25.3,2.8,23.6,26.1,3.0,5.73,1.94,0.1,27.8
2015-07-07 00:48:00,0.0,1.89733,0.00111,391.479,0.192,0.9623,0.0031,140.001,45.000,34260.34842,1.91577,396.136,33.282,45.068,45.000,0.00,0.10,-272.74,-272.80,-7,981,-5,23.8,25.4,2.8,23.6,26.1,3.0,5.73,1.94,0.1,27.8
2015-07-07 00:49:00,0.0,1.89818,0.00059,391.531,0.071,0.9597,0.0031,139.998,45.000,34257.96288,1.91665,396.197,33.287,45.068,45.000,0.00,0.10,-272.73,-272.79,-7,981,-5,23.9,25.3,2.8,23.6,26.1,3.0,5.73,1.94,0.1,27.8
2015-07-07 00:50:00,0.0,1.89797,0.00050,391.511,0.100,0.9582,0.0024,140.001,45.000,34258.60723,1.91639,396.160,33.285,45.068,45.000,0.00,0.10,-272.72,-272.79,-7,981,-5,23.9,25.2,2.7,23.6,25.9,2.9,5.73,1.94,0.1,27.8
2015-07-07 00:51:00,0.0,1.89816,0.00026,391.586,0.055,0.9577,0.0021,140.010,45.000,34264.28680,1.91662,396.235,33.313,45.068,45.000,0.00,0.10,-272.73,-272.79,-7,981,-5,23.9,25.2,2.7,23.6,26.0,2.9,5.73,1.95,0.1,27.8
2015-07-07 00:52:00,0.0,1.89825,0.00051,391.654,0.059,0.9583,0.0023,140.005,45.000,34261.25549,1.91672,396.306,33.313,45.068,45.000,0.00,0.10,-272.73,-272.80,-7,981,-5,23.8,25.2,2.7,23.6,25.9,2.9,5.73,1.93,0.1,27.8
2015-07-07 00:53:00,0.0,1.89828,0.00027,391.710,0.045,0.9593,0.0026,140.004,45.000,34260.96027,1.91674,396.371,33.313,45.068,45.000,0.00,0.10,-272.73,-272.79,-7,981,-5,23.9,25.2,2.7,23.6,26.0,2.9,5.73,1.94,0.2,27.8
2015-07-07 00:54:00,0.0,1.89720,0.00057,391.453,0.130,0.9571,0.0023,140.001,45.000,34263.95070,1.91571,396.111,33.342,45.068,45.000,0.00,0.10,-272.73,-272.79,-7,981,-5,23.9,25.2,2.7,23.6,25.9,2.9,5.73,1.94,0.2,27.8
2015-07-07 00:55:00,0.0,1.89679,0.00065,391.222,0.116,0.9627,0.0016,139.999,45.000,34264.71941,1.91530,395.894,33.367,45.068,45.000,0.00,0.10,-272.73,-272.80,-7,982,-5,23.8,25.3,2.8,23.6,26.1,3.0,5.73,1.94,0.1,27.9
2015-07-07 00:56:00,0.0,1.89700,0.00055,391.412,0.125,0.9628,0.0024,140.002,45.000,34265.20734,1.91551,396.076,33.341,45.068,45.000,0.00,0.10,-272.73,-272.80,-7,981,-5,23.8,25.3,2.8,23.6,26.1,3.0,5.73,1.93,0.2,27.9
2015-07-07 00:57:00,0.0,1.89636,0.00063,391.538,0.094,0.9605,0.0018,140.009,45.000,34268.97512,1.91492,396.212,33.351,45.068,45.000,0.00,0.10,-272.72,-272.79,-7,982,-5,23.8,25.3,2.8,23.6,26.0,3.0,5.73,1.94,0.1,27.9
2015-07-07 00:58:00,0.0,1.89574,0.00035,391.136,0.129,0.9580,0.0019,140.000,45.000,34265.69054,1.91419,395.792,33.340,45.068,45.000,0.00,0.10,-272.73,-272.79,-7,982,-5,23.8,25.2,2.7,23.6,25.9,2.9,5.73,1.94,0.2,27.9
2015-07-07 00:59:00,0.0,1.89594,0.00051,391.109,0.196,0.9618,0.0025,139.996,45.000,34264.68310,1.91441,395.762,33.327,45.068,45.000,0.00,0.10,-272.73,-272.79,-7,982,-5,23.9,25.3,2.8,23.6,26.0,3.0,5.73,1.94,0.2,27.9
2015-07-07 01:00:00,0.0,1.89655,0.00081,391.586,0.144,0.9635,0.0027,140.000,45.000,34266.76127,1.91509,396.268,33.332,45.068,45.000,0.00,0.10,-272.73,-272.78,-7,982,-5,23.8,25.3,2.8,23.6,26.1,3.0,5.73,1.94,0.2,27.9
2015-07-07 01:01:00,0.0,1.89561,0.00042,391.357,0.127,0.9580,0.0034,140.000,45.000,34267.09687,1.91411,396.010,33.319,45.068,45.000,0.00,0.10,-272.73,-272.79,-7,981,-5,23.8,25.1,2.7,23.6,26.0,3.0,5.73,1.94,0.2,27.9
2015-07-07 01:02:00,0.0,1.89539,0.00053,391.322,0.120,0.9569,0.0019,140.004,45.000,34268.80285,1.91377,395.969,33.318,45.068,45.000,0.00,0.10,-272.73,-272.79,-7,981,-5,23.9,25.2,2.7,23.6,25.9,2.9,5.73,1.94,0.2,27.8
2015-07-07 01:03:00,0.0,1.89572,0.00053,391.441,0.149,0.9575,0.0027,140.001,45.000,34268.93231,1.91416,396.091,33.314,45.068,45.000,0.00,0.10,-272.72,-272.79,-7,982,-5,23.9,25.2,2.7,23.6,25.9,2.9,5.73,1.93,0.2,27.8
2015-07-07 01:04:00,0.0,1.89558,0.00054,391.151,0.066,0.9573,0.0021,139.996,45.000,34267.69686,1.91398,395.796,33.313,45.068,45.000,0.00,0.10,-272.72,-272.79,-7,982,-5,23.9,25.1,2.7,23.6,25.9,2.9,5.73,1.93,0.2,27.8
2015-07-07 01:05:00,0.0,1.89533,0.00050,391.156,0.170,0.9626,0.0023,140.001,45.000,34268.50531,1.91383,395.826,33.312,45.068,45.000,0.00,0.10,-272.73,-272.79,-7,982,-5,23.9,25.3,2.8,23.6,26.0,3.0,5.73,1.93,0.2,27.8
2015-07-07 01:06:00,0.0,1.89565,0.00066,391.209,0.151,0.9629,0.0024,140.001,45.000,34268.25178,1.91420,395.882,33.313,45.068,45.000,0.00,0.10,-272.73,-272.79,-7,982,-5,23.9,25.3,2.8,23.6,26.1,3.0,5.73,1.93,0.2,27.8
2015-07-07 01:07:00,0.0,1.89545,0.00049,391.065,0.155,0.9668,0.0019,140.001,45.000,34267.45387,1.91402,395.751,33.312,45.068,45.000,0.00,0.10,-272.73,-272.79,-7,982,-5,23.9,25.4,2.8,23.6,26.1,3.0,5.73,1.93,0.2,27.9
2015-07-07 01:08:00,0.0,1.89487,0.00046,391.204,0.081,0.9680,0.0025,140.002,45.000,34270.90267,1.91353,395.906,33.313,45.068,45.000,0.00,0.10,-272.73,-272.80,-7,982,-5,23.9,25.4,2.9,23.6,26.2,3.1,5.73,1.93,0.2,27.9
2015-07-07 01:09:00,0.0,1.89513,0.00049,391.148,0.053,0.9655,0.0015,139.998,45.000,34271.13601,1.91365,395.831,33.321,45.068,45.000,0.00,0.10,-272.73,-272.79,-7,982,-5,23.9,25.4,2.9,23.6,26.1,3.0,5.73,1.93,0.2,27.8
2015-07-07 01:10:00,0.0,1.89513,0.00044,391.163,0.069,0.9629,0.0015,140.002,45.000,34271.46126,1.91368,395.838,33.318,45.068,45.000,0.00,0.10,-272.72,-272.79,-7,982,-5,23.8,25.3,2.8,23.6,26.0,3.0,5.73,1.93,0.2,27.9
2015-07-07 01:11:00,0.0,1.89522,0.00051,391.142,0.094,0.9642,0.0027,140.004,45.000,34271.82346,1.91372,395.811,33.328,45.068,45.000,0.00,0.10,-272.73,-272.79,-7,982,-5,23.9,25.3,2.9,23.6,26.1,3.0,5.73,1.93,0.2,27.8
2015-07-07 01:12:00,0.0,1.89535,0.00053,391.391,0.128,0.9690,0.0018,139.999,45.000,34269.94122,1.91400,396.093,33.362,45.068,45.000,0.00,0.10,-272.73,-272.79,-7,982,-5,23.9,25.4,2.9,23.6,26.2,3.1,5.73,1.93,0.2,27.8
2015-07-07 01:13:00,0.0,1.89544,0.00051,391.432,0.045,0.9656,0.0024,140.002,45.000,34272.69119,1.91400,396.123,33.368,45.068,45.000,0.00,0.10,-272.73,-272.78,-7,982,-5,23.8,25.4,2.8,23.6,26.1,3.0,5.73,1.93,0.2,27.8
2015-07-07 01:14:00,0.0,1.89499,0.00036,391.254,0.066,0.9620,0.0027,139.999,45.000,34274.14395,1.91355,395.926,33.375,45.068,45.000,0.00,0.10,-272.73,-272.79,-7,983,-5,23.8,25.2,2.8,23.6,26.0,3.0,5.73,1.93,0.2,27.9
2015-07-07 01:15:00,0.0,1.89546,0.00064,391.324,0.108,0.9626,0.0034,140.001,45.000,34271.10974,1.91397,395.995,33.374,45.068,45.000,0.00,0.10,-272.73,-272.79,-7,983,-5,23.9,25.2,2.8,23.6,26.0,3.0,5.73,1.94,0.2,27.9
2015-07-07 01:16:00,0.0,1.89487,0.00036,391.156,0.082,0.9633,0.0021,140.005,45.000,34275.54400,1.91340,395.833,33.367,45.068,45.000,0.00,0.10,-272.72,-272.79,-7,982,-5,23.9,25.3,2.8,23.6,26.0,3.0,5.73,1.93,0.2,27.9
2015-07-07 01:17:00,0.0,1.89523,0.00044,391.200,0.037,0.9634,0.0015,139.998,45.000,34272.42462,1.91372,395.873,33.367,45.068,45.000,0.00,0.10,-272.72,-272.79,-7,982,-5,23.9,25.3,2.8,23.7,26.0,3.0,5.73,1.93,0.2,27.9
2015-07-07 01:18:00,0.0,1.89527,0.00055,391.199,0.097,0.9661,0.0017,140.003,45.000,34275.82658,1.91391,395.890,33.364,45.068,45.000,0.00,0.10,-272.73,-272.79,-7,982,-5,23.8,25.3,2.8,23.6,26.1,3.0,5.73,1.93,0.2,27.9
2015-07-07 01:19:00,0.0,1.89474,0.00060,391.151,0.079,0.9671,0.0015,140.004,45.000,34277.09849,1.91337,395.847,33.368,45.068,45.000,0.00,0.10,-272.73,-272.79,-7,983,-5,23.9,25.4,2.8,23.6,26.1,3.1,5.73,1.93,0.2,27.9
2015-07-07 01:20:00,0.0,1.89489,0.00048,391.077,0.124,0.9676,0.0020,140.001,45.000,34276.48841,1.91343,395.766,33.366,45.068,45.000,0.00,0.10,-272.73,-272.79,-7,983,-5,23.9,25.4,2.9,23.7,26.1,3.1,5.73,1.94,0.2,27.9
2015-07-07 01:21:00,0.0,1.89485,0.00039,391.152,0.073,0.9688,0.0019,139.999,45.000,34275.82189,1.91351,395.851,33.364,45.068,45.000,0.00,0.10,-272.73,-272.79,-7,983,-5,23.9,25.4,2.9,23.6,26.2,3.1,5.73,1.93,0.2,27.9
2015-07-07 01:22:00,0.0,1.89522,0.00039,391.273,0.085,0.9653,0.0028,139.996,45.000,34273.79403,1.91379,395.955,33.335,45.068,45.000,0.00,0.10,-272.73,-272.80,-7,983,-5,23.9,25.3,2.8,23.7,26.0,3.0,5.73,1.94,0.2,27.9
2015-07-07 01:23:00,0.0,1.89562,0.00042,391.302,0.101,0.9603,0.0039,139.999,45.000,34274.33171,1.91406,395.971,33.318,45.068,45.000,0.00,0.10,-272.73,-272.79,-7,983,-5,23.9,25.1,2.7,23.6,25.9,3.0,5.73,1.94,0.2,27.9
2015-07-07 01:24:00,0.0,1.89524,0.00047,391.015,0.159,0.9563,0.0031,140.005,45.000,34277.45820,1.91364,395.655,33.313,45.068,45.001,0.00,0.10,-272.73,-272.79,-7,983,-5,23.9,25.1,2.7,23.6,25.8,2.9,5.73,1.94,0.2,27.9
2015-07-07 01:25:00,0.0,1.89531,0.00046,391.060,0.059,0.9641,0.0037,140.001,45.000,34276.66840,1.91391,395.737,33.323,45.068,45.000,0.00,0.10,-272.73,-272.79,-7,983,-5,23.9,25.3,2.8,23.6,26.0,3.0,5.73,1.94,0.2,27.9
2015-07-07 01:26:00,0.0,1.89470,0.00044,391.192,0.083,0.9658,0.0020,139.999,45.000,34277.34260,1.91330,395.870,33.339,45.068,45.000,0.00,0.10,-272.73,-272.79,-7,983,-5,23.9,25.3,2.8,23.7,26.1,3.0,5.73,1.94,0.2,27.8
2015-07-07 01:27:00,0.0,1.89449,0.00049,391.270,0.102,0.9611,0.0030,139.999,45.000,34277.08803,1.91293,395.938,33.359,45.068,45.000,0.00,0.10,-272.73,-272.78,-7,983,-5,23.9,25.1,2.7,23.6,25.9,3.0,5.73,1.95,0.2,27.9
2015-07-07 01:28:00,0.0,1.89489,0.00035,391.200,0.081,0.9522,0.0021,139.997,45.000,34276.95911,1.91320,395.824,33.373,45.068,45.000,0.00,0.10,-272.73,-272.79,-7,983,-5,23.9,25.0,2.6,23.7,25.7,2.9,5.73,1.94,0.2,27.9
2015-07-07 01:29:00,0.0,1.89454,0.00043,391.194,0.114,0.9568,0.0025,139.993,45.000,34275.50484,1.91293,395.827,33.375,45.068,45.000,0.00,0.10,-272.73,-272.79,-7,983,-5,23.9,25.1,2.7,23.6,25.7,2.9,5.73,1.94,0.2,27.8
2015-07-07 01:30:00,0.0,1.89450,0.00056,391.133,0.113,0.9559,0.0039,140.005,45.000,34279.49515,1.91287,395.777,33.375,45.068,45.000,0.00,0.10,-272.72,-272.79,-8,983,-5,23.9,25.0,2.7,23.7,25.8,2.9,5.73,1.95,0.2,27.8
2015-07-07 01:31:00,0.0,1.89462,0.00048,391.177,0.054,0.9531,0.0033,140.003,45.000,34280.18738,1.91295,395.798,33.375,45.068,45.000,0.00,0.10,-272.72,-272.79,-8,983,-5,23.9,24.9,2.6,23.6,25.7,2.8,5.73,1.95,0.2,27.9
2015-07-07 01:32:00,0.0,1.89469,0.00049,391.051,0.090,0.9552,0.0022,139.998,45.000,34279.27664,1.91307,395.686,33.366,45.068,45.000,0.00,0.10,-272.73,-272.80,-8,983,-5,23.9,25.0,2.7,23.6,25.7,2.8,5.73,1.94,0.2,27.9
2015-07-07 01:33:00,0.0,1.89441,0.00049,391.060,0.172,0.9576,0.0025,139.997,45.000,34278.11198,1.91279,395.700,33.373,45.068,45.000,0.00,0.10,-272.73,-272.78,-7,983,-5,23.9,25.1,2.7,23.7,25.8,2.9,5.73,1.94,0.2,27.8
2015-07-07 01:34:00,0.0,1.89451,0.00047,391.170,0.072,0.9553,0.0036,139.998,45.000,34278.04377,1.91289,395.805,33.340,45.068,45.000,0.00,0.10,-272.73,-272.79,-7,983,-5,23.9,25.0,2.7,23.7,25.8,2.9,5.73,1.95,0.2,27.8
2015-07-07 01:35:00,0.0,1.89392,0.00074,391.088,0.080,0.9441,0.0024,140.003,45.000,34279.20260,1.91206,395.666,33.342,45.068,45.000,0.00,0.10,-272.73,-272.79,-7,983,-5,23.9,24.7,2.5,23.7,25.4,2.7,5.73,1.94,0.2,27.8
2015-07-07 01:36:00,0.0,1.89396,0.00047,391.044,0.062,0.9501,0.0046,140.001,45.000,34279.07292,1.91223,395.651,33.359,45.068,45.000,0.00,0.10,-272.73,-272.80,-7,983,-5,23.9,24.9,2.6,23.7,25.5,2.8,5.73,1.94,0.2,27.8
2015-07-07 01:37:00,0.0,1.89420,0.00054,391.088,0.057,0.9516,0.0015,140.000,45.000,34277.54581,1.91244,395.701,33.372,45.068,45.000,0.00,0.10,-272.72,-272.79,-7,983,-5,23.9,24.9,2.6,23.7,25.6,2.8,5.73,1.93,0.2,27.9
2015-07-07 01:38:00,0.0,1.89408,0.00064,391.068,0.053,0.9459,0.0036,140.001,45.000,34279.73467,1.91224,395.657,33.373,45.068,45.000,0.00,0.10,-272.73,-272.79,-7,984,-5,23.9,24.7,2.5,23.6,25.5,2.7,5.73,1.93,0.2,27.9
2015-07-07 01:39:00,0.0,1.89484,0.00044,390.980,0.044,0.9434,0.0021,139.999,45.000,34277.80109,1.91299,395.554,33.375,45.068,45.000,0.00,0.10,-272.73,-272.79,-7,983,-5,23.9,24.7,2.5,23.7,25.4,2.7,5.73,1.93,0.2,27.9
2015-07-07 01:40:00,0.0,1.89534,0.00042,390.909,0.057,0.9465,0.0022,139.997,45.000,34276.82598,1.91351,395.498,33.375,45.068,45.000,0.00,0.10,-272.73,-272.78,-8,983,-5,23.9,24.8,2.6,23.7,25.5,2.7,5.73,1.92,0.2,27.9
2015-07-07 01:41:00,0.0,1.89517,0.00040,390.828,0.056,0.9492,0.0021,140.003,45.000,34279.00339,1.91341,395.429,33.376,45.068,45.000,0.00,0.10,-272.73,-272.78,-8,983,-5,23.9,24.9,2.6,23.7,25.5,2.8,5.73,1.92,0.3,27.9
2015-07-07 01:42:00,0.0,1.89535,0.00043,390.781,0.051,0.9541,0.0013,140.001,45.000,34279.90839,1.91369,395.403,33.382,45.068,45.000,0.00,0.10,-272.73,-272.79,-8,983,-5,23.9,25.0,2.7,23.7,25.6,2.8,5.73,1.92,0.2,27.9
2015-07-07 01:43:00,0.0,1.89577,0.00067,390.761,0.055,0.9523,0.0017,140.000,45.000,34280.25332,1.91404,395.376,33.390,45.068,45.000,0.00,0.10,-272.73,-272.79,-8,983,-5,23.9,24.9,2.6,23.6,25.6,2.8,5.73,1.92,0.2,27.9
2015-07-07 01:44:00,0.0,1.89594,0.00039,390.757,0.127,0.9527,0.0019,139.996,45.000,34281.00632,1.91426,395.368,33.430,45.068,45.000,0.00,0.10,-272.72,-272.79,-7,983,-5,23.9,24.9,2.6,23.7,25.6,2.8,5.73,1.92,0.2,27.9
2015-07-07 01:45:00,0.0,1.89601,0.00055,390.749,0.106,0.9523,0.0023,140.000,45.000,34278.87100,1.91433,395.369,33.437,45.068,45.000,0.00,0.10,-272.73,-272.79,-7,983,-5,23.9,24.9,2.6,23.7,25.6,2.8,5.73,1.92,0.3,27.9
2015-07-07 01:46:00,0.0,1.89634,0.00073,390.733,0.045,0.9527,0.0014,140.002,45.000,34282.79199,1.91463,395.347,33.432,45.068,45.000,0.00,0.10,-272.73,-272.79,-7,983,-5,23.9,24.9,2.7,23.7,25.6,2.8,5.73,1.93,0.2,28.0
2015-07-07 01:47:00,0.0,1.89690,0.00052,390.678,0.071,0.9548,0.0024,139.998,45.000,34282.30496,1.91527,395.307,33.424,45.068,45.000,0.00,0.10,-272.73,-272.78,-7,984,-5,23.9,25.0,2.7,23.7,25.7,2.9,5.73,1.93,0.3,27.9
2015-07-07 01:48:00,0.0,1.89790,0.00050,390.610,0.054,0.9519,0.0020,139.997,45.000,34281.47669,1.91618,395.220,33.398,45.068,45.000,0.00,0.10,-272.73,-272.79,-7,984,-5,23.9,24.9,2.6,23.7,25.6,2.8,5.73,1.93,0.3,28.0